sat.trackr.live / text

‹ back to catalog

JCSAT-13

NORAD 38331 · 2012-023A

PAYLOAD ACTIVE UNKNOWN

§ Identity

Operator
Country
JPN
Launch date
2012-05-15
Launch site
FRGUI
Launch vehicle
Mass (kg)
RCS (m²)
39.81

Purposes: comms

External: N2YO · Heavens-Above · Gunter

§ Orbital elements

Epoch: 2026-09-12T00:48:19.633248Z

Period
1,436.07 min
Inclination
0.0387°
Eccentricity
0.0002347
Mean motion
1.00273914 rev/d
Perigee alt
35,776.1 km
Apogee alt
35,795.9 km
Semi-major
42,164.1 km
B*
0.0000e+0
RAAN
266.1565°
Arg perigee
251.2645°
Mean anomaly
329.7037°
Rev number
5,242

§ Raw data

JCSAT-131 38331U 12023A   26255.03356057 -.00000371  00000+0  00000+0 0  99952 38331   0.0387 266.1565 0002347 251.2645 329.7037  1.00273914 52421

JSON: /api/v1/satellites/38331 · /tle

For live sub-satellite position, see the globe view (requires WebGL).

§ Visibility from observer

Set your observer location to see the next 7 days of passes ≥ 10°. The values pass through the URL so the page stays shareable.

No JS? Fill the form by hand. The geolocation button needs JavaScript.